{"data":{"norad_id":48690,"intl_designator":"2021-044BE","name":"STARLINK-2740","alt_names":[],"object_type":"PAYLOAD","status":"ACTIVE","operator":null,"country":"US","launch_date":"2021-05-26","launch_site_code":"AFETR","launch_vehicle":null,"mission":null,"orbit_class":"UNKNOWN","rcs_meters":null,"size_class":null,"mass_kg":null,"dimensions":null,"purposes":["comms"],"wikipedia_slug":null,"has_3d_model":false,"image_url":null,"decayed_at":null,"tle_current":{"epoch":"2026-05-25T02:19:48.016128Z","epoch_age_seconds":59884,"freshness":"FRESH","line1":"1 48690U 21044BE  26145.09708352  .00000674  00000+0  33474-4 0  9991","line2":"2 48690  53.1596  79.9523 0001333  77.4805 282.6345 15.31702565276060","mean_motion":15.31702565,"eccentricity":0.0001333,"inclination_deg":53.1596,"raan_deg":79.9523,"arg_perigee_deg":77.4805,"mean_anomaly_deg":282.6345,"bstar":3.3474e-5,"rev_number":27606,"period_min":94.013030525936,"perigee_km":469.81939482055,"apogee_km":471.64530338902,"semimajor_km":6848.8693491048,"source":"CELESTRAK","updated_at":"2026-05-25T13:38:16.762420Z"}}}